Погода в Екабпилсе

Латвия     56°29′52″N   25°52′00″E
темп.,
°C
ветер,
м/с
пор.,
м/с
влажн.,
%
обл.,
%
осадки,
мм/ч
давл.,
гПа
погр.,
м
5 декабря, вс
вс523:00−5всв129895 0.2 100761
02:00−5всв259791 0.3 1008165
05:00−5всв379474 0.2 1009294
08:00−6всв389387 0.3 1012346
11:00−7всв378794 0.1 1014384
14:00−7св378794 0.1 1015404
17:00−10св498942 0.0 1016357
20:00−11св4109055 0.0 1018357
6 декабря, пн
пн623:00−12всв399194 0.0 1019327
02:00−13всв399299 0.0 1019307
05:00−13всв399274 0.0 1018297
08:00−13св389185 0.1 1019267
11:00−11всв358697 0.1 1018287
14:00−10св3486100 0.1 1017317
17:00−10св269285 0.1 1017265
20:00−10св2592100 0.2 1017236
7 декабря, вт
вт723:00−10св249169 0.1 1016218
02:00−11ссв259661 0.1 1015147
05:00−11с259675 0.0 1015172
08:00−12с249665 0.1 1015124
11:00−10ссв248723 0.0 1015203
14:00−9с248438 0.0 1015326
17:00−12ссз259643 0.0 101689
20:00−14ссз139754 0.0 101758
8 декабря, ср
ср823:00−14сз119858 0.0 101833
02:00−14сз119864 0.0 101910
05:00−14с119861 0.0 10199
08:00−14с119863 0.0 102010
11:00−10св13895 0.0 1021126
14:00−8св14855 0.0 1021267
17:00−13св129758 0.0 102234
20:00−13всв1697100 0.0 1023105
9 декабря, чт
чт923:00−13св269758 0.0 1023126
02:00−13св279875 0.0 1023161
05:00−13св289888 0.0 1023191
08:00−12всв3109791 0.0 1023249
11:00−10св389082 0.0 1023278
14:00−9всв388811 0.0 1022353
17:00−11св3109539 0.0 1022282
20:00−12всв28958 0.0 1023242